Home > Weather > Langesund > Past weeks

Flag for Norway Past Weather in Langesund, Norway — Yesterday and Last 2 Weeks

Now
54 °F

Cool.


Feels Like: 52 °F
Forecast: 50 / 64 °F
Wind: 8 mph from Northeast

Location: Jomfruland Fyr

Current Time: May 25, 2016 at 1:43:14 AM

Latest Report: May 25, 2016 at 12:00 AM


Visibility: N/A

Pressure: 30.09 "Hg

Humidity: 68%

Dew Point: 44 °F

Location of LangesundLocation

Past Weather in Langesund — Graph

°F

Langesund Temperature Yesterday

Maximum temperature yesterday: 58 °F (at 7:00 PM)
Minimum temperature yesterday: 52 °F (at 3:00 AM)
Average temperature yesterday: 55 °F

High & Low Weather Summary for the Past Weeks

 TemperatureHumidityPressure
High68 °F (May 10, 12:00 PM)97% (May 20, 3:00 AM)30.22 "Hg (May 20, 3:00 AM)
Low44 °F (May 14, 6:00 AM)28% (May 15, 2:00 PM)29.65 "Hg (May 13, 6:00 PM)
Average53 °F73%29.83 "Hg
* Reported May 10 12:00 AM — May 25 12:00 AM, Langesund, Weather by CustomWeather, © 2016

Note: Actual official high and low records may vary slightly from our data, if they occured in-between our weather recording intervals... More about our weather records

Advertising

Langesund Weather History for the Previous 24 Hours

Scroll right to see more
 ConditionsComfort  
Time TempWeatherWind HumidityBarometerVisibility
12:00 AM
Wed, May 25
54 °FCool.8 mph68%30.09 "HgN/A
11:00 PM
Tue, May 24
55 °FCool.9 mph69%30.07 "HgN/A
10:00 PM55 °FCool.9 mph72%30.05 "HgN/A
9:00 PM56 °FCool.9 mph70%30.05 "HgN/A
8:00 PM57 °FCool.8 mph67%30.03 "HgN/A
7:00 PM58 °FCool.7 mph68%30.01 "HgN/A
6:00 PM57 °FCool.7 mph71%30.01 "HgN/A
5:00 PM58 °FCool.7 mph70%30.01 "HgN/A
4:00 PM57 °FCool.7 mph72%30.01 "HgN/A
3:00 PM58 °FCool.7 mph70%30.01 "HgN/A
2:00 PM58 °FCool.8 mph70%30.01 "HgN/A
1:00 PM56 °FCool.10 mph73%30.02 "HgN/A
12:00 PM55 °FCool.8 mph76%30.02 "HgN/A
11:00 AM55 °FCool.9 mph75%30.01 "HgN/A
10:00 AM54 °FCool.12 mph76%30.00 "HgN/A
9:00 AM54 °FCool.8 mph79%30.00 "HgN/A
8:00 AM54 °FCool.6 mph85%29.99 "HgN/A
7:00 AM53 °FCool.6 mph90%29.98 "HgN/A
6:00 AM53 °FCool.6 mph94%29.96 "HgN/A
5:00 AM53 °FCool.5 mph97%29.96 "HgN/A
4:00 AM52 °FCool.3 mph97%29.95 "HgN/A
3:00 AM52 °FCool.3 mph97%29.95 "HgN/A
2:00 AM52 °FCool.2 mph97%29.94 "HgN/A
1:00 AM52 °FCool.2 mph97%29.92 "HgN/A
Weather by CustomWeather, © 2016

See weather overviewHow to use our weather pages